Location: Wildlife_Club
(35.6000°N, 81.4330°W)
Time: 23:35:01
(UTC-04:00)

A-11 Canister half - Pass Details

Date: 02 July 2019
Orbit: 1514 x 1685 km, 47.2° (Epoch: 19 July)

Event Time Altitude Azimuth Distance (km) Brightness Sun altitude
Rises 09:31:13 0° 245° (WSW) 4,932 11.2 37.3°
Reaches altitude 10° 09:34:26 10° 248° (WSW) 3,942 10.8 37.9°
Maximum altitude 09:44:33 69° 331° (NNW) 1,757 9.8 40.0°
Drops below altitude 10° 09:54:28 10° 55° (NE) 3,860 11.9 42.0°
Sets 09:57:35 0° 58° (ENE) 4,825 12.2 42.6°
